Stations météo

réclame
Mon MeteoGroup
Brest, France (7110): Température de l'air & dewpoint: 05.12.2018 00:00:00 - 11.12.2018 00:00:00 (CET)Brest, France (7110): Température de l'air 5cm: 05.12.2018 00:00:00 - 11.12.2018 00:00:00 (CET)Brest, France (7110): Température de l'air -20cm & Température de l'air -100cm: 05.12.2018 00:00:00 - 11.12.2018 00:00:00 (CET)Brest, France (7110): Vitesse du vent & gusts: 05.12.2018 00:00:00 - 11.12.2018 00:00:00 (CET)Brest, France (7110): Direction du vent: 05.12.2018 00:00:00 - 11.12.2018 00:00:00 (CET)Brest, France (7110): reduced air pressure: 05.12.2018 00:00:00 - 11.12.2018 00:00:00 (CET)Brest, France (7110): visibility: 05.12.2018 00:00:00 - 11.12.2018 00:00:00 (CET)Brest, France (7110): Ensoleillement: 05.12.2018 00:00:00 - 11.12.2018 00:00:00 (CET)Brest, France (7110): Quantités de précipitations: 05.12.2018 00:00:00 - 11.12.2018 00:00:00 (CET)
Date & Time tt [°C] td [°C] tt 5cm [°C] tt -20cm [°C] tt -100cm [°C] ff [km/h] ff [knt] fx [km/h] fx [knt] dd ppp [hPa] vv [km] sd [min] rr [mm]
11.12.2018 00:00:00 - - - - - - - - - - - - - -
10.12.2018 23:00:00 8,8 6,8 8,1 10,4 11,6 5 3 9 5 SSE 1029,3 14 0 0,0
10.12.2018 22:00:00 8,9 7,0 7,9 10,4 11,6 5 3 12 7 SE 1029,3 9 0 0,0
10.12.2018 21:00:00 8,8 6,8 7,2 10,4 11,6 7 4 10 5 S 1029,7 11 0 0,0
10.12.2018 20:00:00 8,9 6,5 4,8 10,3 11,6 6 3 10 5 S 1029,9 14 0 0,0
10.12.2018 19:00:00 9,7 6,8 7,7 10,3 11,6 8 4 10 6 S 1030,2 11 0 0,0
10.12.2018 18:00:00 10,1 6,2 8,5 10,3 11,6 3 2 6 3 WSW 1030,5 18 0 0,0
10.12.2018 17:00:00 10,6 6,2 10,0 10,2 11,6 4 2 10 5 W 1030,8 20 0 0,0
10.12.2018 16:00:00 11,4 5,7 12,6 10,1 11,6 6 3 14 8 WNW 1031,0 20 1 0,0
10.12.2018 15:00:00 11,6 5,7 14,0 10,1 11,6 - - - - - 1031,2 20 4 0,0
10.12.2018 14:00:00 12,2 5,6 11,7 10,1 11,6 8 4 14 7 W 1031,5 20 27 0,0
10.12.2018 13:00:00 11,1 6,6 12,1 10,1 11,6 7 4 13 7 W 1031,9 20 15 0,0
10.12.2018 12:00:00 11,0 7,1 10,2 10,2 11,6 5 3 9 5 W 1032,3 18 23 0,0
10.12.2018 11:00:00 8,7 6,3 6,9 10,2 11,6 6 3 12 6 W 1032,1 14 0 0,0
10.12.2018 10:00:00 6,6 5,4 3,3 10,3 11,6 5 3 10 6 SW 1032,2 18 0 0,0
10.12.2018 09:00:00 5,8 4,8 1,1 10,3 11,6 8 5 11 6 W 1032,0 16 0 0,0
10.12.2018 08:00:00 6,0 5,0 0,4 10,4 11,6 5 3 9 5 W 1032,0 15 0 0,0
10.12.2018 07:00:00 5,3 4,3 -0,2 10,4 11,6 6 3 11 6 W 1032,1 16 0 0,0
10.12.2018 06:00:00 4,7 3,2 -0,2 10,5 11,6 8 5 13 7 W 1031,7 16 0 0,0
10.12.2018 05:00:00 4,8 3,0 -0,2 10,5 11,6 8 4 13 7 W 1031,7 17 0 0,0
10.12.2018 04:00:00 5,7 3,9 0,3 10,6 11,6 5 3 10 5 WSW 1031,8 16 0 0,0
10.12.2018 03:00:00 5,8 4,1 0,0 10,6 11,6 5 3 13 7 WNW 1031,7 17 0 0,0
10.12.2018 02:00:00 6,5 4,2 0,8 10,7 11,6 6 3 12 7 WNW 1031,6 15 0 0,0
10.12.2018 01:00:00 7,3 3,7 3,3 10,7 11,6 6 3 18 10 WNW 1031,5 18 0 0,0
10.12.2018 00:00:00 8,6 4,6 5,6 10,7 11,6 10 5 20 11 WNW 1030,8 16 0 0,0
09.12.2018 23:00:00 9,0 4,6 6,4 10,8 11,6 13 7 26 14 WNW 1030,7 17 0 0,0
09.12.2018 22:00:00 9,5 5,3 6,9 10,8 11,6 18 10 35 19 NW 1030,1 16 0 0,0
09.12.2018 21:00:00 9,4 5,0 7,2 10,8 11,6 18 10 35 19 WNW 1029,6 16 0 0,0
09.12.2018 20:00:00 9,8 5,4 7,6 10,8 11,6 19 10 39 21 NW 1028,8 15 0 0,0
09.12.2018 19:00:00 9,9 5,3 7,8 10,8 11,6 22 12 45 24 NW 1028,1 15 0 0,0
09.12.2018 18:00:00 10,1 5,1 8,1 10,8 11,6 23 12 44 24 NW 1027,3 17 0 0,0
09.12.2018 17:00:00 10,2 5,2 8,5 10,8 11,6 25 13 51 27 NW 1026,5 15 2 0,0
09.12.2018 16:00:00 11,0 5,9 10,3 10,8 11,6 29 16 53 28 NW 1025,4 14 16 0,0
09.12.2018 15:00:00 11,0 6,5 10,7 10,8 11,6 34 18 62 34 NW 1024,4 12 8 0,0
09.12.2018 14:00:00 11,4 6,1 11,4 10,8 11,6 35 19 67 36 NW 1023,8 14 10 0,0
09.12.2018 13:00:00 11,8 6,1 11,1 10,8 11,6 40 21 67 36 WNW 1023,1 8 21 0,0
09.12.2018 12:00:00 11,5 6,2 10,0 10,8 11,6 35 19 68 37 WNW 1022,5 7 18 0,0
09.12.2018 11:00:00 11,3 6,0 9,4 10,8 11,6 35 19 68 37 WNW 1021,4 13 24 0,0
09.12.2018 10:00:00 11,0 7,3 8,9 10,8 11,6 32 18 72 39 WNW 1020,4 10 0 0,0
09.12.2018 09:00:00 10,9 7,0 8,5 10,8 11,6 32 18 64 35 W 1019,3 10 0 0,0
09.12.2018 08:00:00 10,1 6,8 8,2 10,9 11,6 32 18 77 42 WNW 1018,6 9 0 0,4
09.12.2018 07:00:00 10,7 5,7 7,8 10,9 11,6 32 17 66 36 W 1017,9 8 0 0,2
09.12.2018 06:00:00 9,8 5,8 8,2 11,0 11,6 32 17 67 36 WNW 1017,4 7 0 0,0
09.12.2018 05:00:00 10,7 4,4 8,5 10,9 11,6 30 16 60 32 W 1017,1 11 0 0,0
09.12.2018 04:00:00 10,7 3,9 8,2 11,0 11,6 34 19 70 38 W 1016,9 12 0 0,0
09.12.2018 03:00:00 10,3 4,0 8,0 11,1 11,7 37 20 63 34 WNW 1016,4 12 0 0,0
09.12.2018 02:00:00 10,7 4,8 7,5 11,0 11,6 35 19 70 38 W 1015,6 13 0 0,0
09.12.2018 01:00:00 10,9 6,0 8,5 11,0 11,6 34 18 61 33 WNW 1015,4 9 0 0,0
09.12.2018 00:00:00 10,8 6,3 8,5 11,1 11,6 27 15 58 32 W 1014,9 9 0 0,4
08.12.2018 23:00:00 11,1 6,6 8,9 11,0 11,6 34 19 74 40 W 1014,8 8 0 0,4
08.12.2018 22:00:00 11,1 8,0 9,2 11,1 11,6 28 15 52 28 W 1014,2 3,7 0 0,2
08.12.2018 21:00:00 11,5 7,6 9,5 11,1 11,6 28 15 64 35 W 1014,3 7 0 0,0
08.12.2018 20:00:00 11,8 8,5 10,0 11,0 11,6 28 15 65 35 W 1014,0 6 0 0,0
08.12.2018 19:00:00 12,2 9,2 10,9 11,0 11,6 27 14 57 31 W 1013,9 7 0 0,0
08.12.2018 18:00:00 12,3 9,5 11,3 11,0 11,6 29 16 63 34 W 1013,8 8 0 0,0
08.12.2018 17:00:00 12,4 10,3 11,6 10,9 11,6 31 17 61 33 W 1013,7 7 0 0,0
08.12.2018 16:00:00 12,6 10,7 12,1 10,9 11,6 35 19 72 39 W 1013,4 11 0 0,0
08.12.2018 15:00:00 12,8 11,9 12,2 10,9 11,6 42 23 76 41 WSW 1013,5 7 0 0,4
08.12.2018 14:00:00 12,2 11,6 11,5 10,9 11,6 41 22 67 36 WSW 1014,5 6 0 0,4
08.12.2018 13:00:00 11,6 10,8 11,1 10,9 11,6 41 22 67 36 SW 1015,5 2,3 0 0,6
08.12.2018 12:00:00 11,3 10,2 10,6 10,9 11,6 42 23 62 33 WSW 1016,9 4,8 0 0,4
08.12.2018 11:00:00 11,1 9,5 10,3 10,9 11,6 42 23 72 39 WSW 1017,2 4,3 0 0,4
08.12.2018 10:00:00 10,7 9,5 9,7 10,9 11,6 28 15 52 28 WSW 1017,7 3,1 0 0,2
08.12.2018 09:00:00 10,3 8,7 9,6 10,9 11,6 29 16 49 27 WSW 1018,2 11 0 0,0
08.12.2018 08:00:00 10,9 7,6 8,5 10,9 11,6 23 13 46 25 WSW 1018,6 13 0 0,0
08.12.2018 07:00:00 10,6 6,5 8,7 10,9 11,6 23 12 42 23 W 1018,4 11 0 0,0
08.12.2018 06:00:00 10,4 6,5 8,4 11,0 11,6 24 13 45 25 W 1018,5 11 0 0,0
08.12.2018 05:00:00 10,0 6,3 7,3 11,0 11,6 21 12 45 24 W 1018,8 14 0 0,0
08.12.2018 04:00:00 9,0 6,1 7,2 11,0 11,6 20 11 47 26 W 1019,0 17 0 0,8
08.12.2018 03:00:00 9,9 6,1 7,4 11,0 11,5 26 14 51 28 W 1018,9 16 0 0,0
08.12.2018 02:00:00 9,7 5,7 7,1 11,1 11,6 26 14 50 27 W 1018,7 15 0 0,0
08.12.2018 01:00:00 9,6 5,6 6,9 11,2 11,6 32 17 62 34 W 1018,9 12 0 0,0
08.12.2018 00:00:00 8,7 5,6 6,4 11,2 11,5 21 11 59 32 WSW 1018,5 15 0 0,0
07.12.2018 23:00:00 8,7 4,7 7,1 11,3 11,6 35 19 80 43 W 1018,7 6 0 0,2
07.12.2018 22:00:00 9,6 4,8 7,3 11,3 11,6 24 13 48 26 W 1018,6 17 0 0,0
07.12.2018 21:00:00 9,6 4,6 7,3 11,4 11,6 23 12 51 27 W 1018,2 18 0 0,0
07.12.2018 20:00:00 9,3 4,5 6,7 11,4 11,6 23 12 53 29 W 1017,6 18 0 0,0
07.12.2018 19:00:00 9,2 4,2 6,1 11,5 11,6 26 14 54 29 W 1017,1 18 0 0,0
07.12.2018 18:00:00 8,1 3,9 5,6 11,5 11,5 20 11 68 37 W 1016,3 19 0 0,2
07.12.2018 17:00:00 8,0 4,2 6,4 11,5 11,5 22 12 48 26 W 1015,9 5 6 0,4
07.12.2018 16:00:00 9,0 3,8 6,6 11,6 11,6 21 12 61 33 WNW 1015,0 19 12 0,4
07.12.2018 15:00:00 10,0 3,5 8,7 11,6 11,5 34 19 62 33 WNW 1013,9 20 26 0,0
07.12.2018 14:00:00 10,3 4,4 8,1 11,7 11,6 34 19 61 33 W 1012,9 11 19 0,0
07.12.2018 13:00:00 9,9 3,6 7,0 11,7 11,5 32 17 61 33 W 1012,5 39 14 0,2
07.12.2018 12:00:00 8,7 4,1 7,3 11,8 11,6 35 19 83 45 W 1012,3 7 22 0,2
07.12.2018 11:00:00 9,7 5,7 8,3 11,8 11,6 20 11 42 23 W 1011,4 18 2 0,2
07.12.2018 10:00:00 9,1 7,4 8,0 11,7 11,5 16 9 52 28 W 1010,9 12 0 0,6
07.12.2018 09:00:00 9,3 8,2 8,9 11,8 11,6 27 15 68 37 WNW 1010,1 4,4 0 3,2
07.12.2018 08:00:00 12,5 12,0 12,0 11,7 11,5 44 24 66 35 SW 1008,5 2,0 0 4,3
07.12.2018 07:00:00 12,2 11,6 11,6 11,7 11,5 47 26 67 36 SSW 1010,3 3,9 0 4,6
07.12.2018 06:00:00 12,1 10,8 11,5 11,7 11,5 37 20 60 32 SW 1011,8 2,7 0 0,2
07.12.2018 05:00:00 12,2 10,4 11,6 11,7 11,5 37 20 61 33 SSW 1013,1 11 0 0,0
07.12.2018 04:00:00 12,3 10,4 11,6 11,7 11,5 36 20 59 32 SSW 1014,6 13 0 0,0
07.12.2018 03:00:00 12,3 11,2 11,8 11,7 11,5 40 22 62 33 SW 1016,0 6 0 0,2
07.12.2018 02:00:00 12,3 11,4 11,8 11,7 11,5 37 20 67 36 SW 1017,0 4,7 0 0,2
07.12.2018 01:00:00 12,2 11,6 11,9 11,7 11,5 35 19 56 31 SW 1017,8 4,4 0 0,0
07.12.2018 00:00:00 12,3 11,5 11,9 11,7 11,5 30 16 54 29 SW 1018,4 6 0 0,2
06.12.2018 23:00:00 12,2 11,7 12,0 11,7 11,5 31 17 50 27 SW 1019,2 7 0 0,0
06.12.2018 22:00:00 12,2 11,7 12,0 11,7 11,5 31 17 51 28 SW 1019,6 5 0 0,0
06.12.2018 21:00:00 12,3 11,7 12,1 11,7 11,5 27 15 46 25 SW 1020,4 5 0 0,0
06.12.2018 20:00:00 12,3 11,8 12,1 11,7 11,5 28 15 45 25 SW 1020,8 2,2 0 0,0
06.12.2018 19:00:00 12,3 11,8 12,1 11,7 11,5 28 15 48 26 SW 1021,1 1,9 0 0,2
06.12.2018 18:00:00 12,3 11,8 11,9 11,7 11,5 29 16 47 25 SW 1021,0 2,1 0 0,0
06.12.2018 17:00:00 12,2 11,4 11,9 11,6 11,5 29 16 45 25 SW 1020,9 5 0 0,2
06.12.2018 16:00:00 12,3 11,2 12,0 11,7 11,5 24 13 36 19 SW 1021,0 5 0 0,0
06.12.2018 15:00:00 12,2 11,3 12,2 11,6 11,5 22 12 41 22 WSW 1021,5 11 0 0,0
06.12.2018 14:00:00 13,0 9,8 13,2 11,6 11,5 24 13 42 23 SW 1021,7 12 0 0,0
06.12.2018 13:00:00 13,1 9,5 12,7 11,6 11,5 25 13 44 24 WSW 1021,8 14 0 0,0
06.12.2018 12:00:00 12,6 9,8 12,2 11,7 11,5 26 14 40 21 WSW 1022,2 13 0 0,0
06.12.2018 11:00:00 12,4 10,5 10,0 11,7 11,5 22 12 34 18 WSW 1021,8 13 1 0,0
06.12.2018 10:00:00 11,4 9,5 10,2 11,7 11,5 16 9 29 16 WSW 1021,6 17 0 0,0
06.12.2018 09:00:00 11,2 10,1 9,7 11,7 11,5 13 7 41 22 WSW 1021,2 15 0 0,0
06.12.2018 08:00:00 11,6 10,8 11,1 11,7 11,5 16 9 41 22 W 1020,7 51 0 0,2
06.12.2018 07:00:00 11,7 10,9 11,3 11,7 11,5 15 8 36 19 WSW 1019,7 13 0 0,0
06.12.2018 06:00:00 11,7 11,1 11,4 11,7 11,5 19 10 29 16 W 1019,4 3,4 0 0,0
06.12.2018 05:00:00 11,8 11,2 11,5 11,7 11,5 18 10 34 18 W 1018,8 15 0 0,0
06.12.2018 04:00:00 11,8 11,3 11,6 11,7 11,5 18 10 34 18 W 1018,5 1,7 0 0,2
06.12.2018 03:00:00 11,8 11,3 11,6 11,7 11,4 14 8 32 18 W 1018,0 2,2 0 0,0
06.12.2018 02:00:00 11,9 11,3 11,7 11,7 11,4 19 10 36 19 W 1017,5 3,5 0 0,0
06.12.2018 01:00:00 12,3 11,8 12,0 11,7 11,4 16 9 28 15 W 1016,6 12 0 0,0
06.12.2018 00:00:00 12,5 11,9 12,2 11,7 11,4 17 9 29 16 W 1016,1 6 0 0,0
05.12.2018 23:00:00 12,5 12,0 12,3 11,7 11,4 16 8 27 15 WSW 1015,6 11 0 0,4
05.12.2018 22:00:00 12,7 12,1 12,4 11,7 11,4 18 10 36 19 WSW 1014,9 12 0 0,2
05.12.2018 21:00:00 12,8 12,3 12,5 11,6 11,4 22 12 36 20 WSW 1014,7 4,6 0 0,2
05.12.2018 20:00:00 12,8 12,2 12,5 11,6 11,4 24 13 46 25 WSW 1013,8 2,9 0 0,2
05.12.2018 19:00:00 12,8 12,0 12,5 11,6 11,4 28 15 57 31 WSW 1013,3 3,5 0 0,2
05.12.2018 18:00:00 13,0 11,9 12,5 11,6 11,4 32 18 49 26 WSW 1012,9 9 0 0,4
05.12.2018 17:00:00 13,1 12,0 12,7 11,6 11,4 29 16 45 25 SW 1012,6 8 0 0,2
05.12.2018 16:00:00 13,3 11,9 12,9 11,5 11,4 31 17 49 26 WSW 1012,7 9 0 0,0
05.12.2018 15:00:00 13,2 12,6 12,7 11,5 11,4 29 15 51 27 SW 1013,0 8 0 0,0
05.12.2018 14:00:00 12,8 12,3 12,6 11,5 11,4 32 18 54 29 SW 1013,5 10 0 4,5
05.12.2018 13:00:00 12,8 12,2 12,5 11,5 11,4 34 18 56 30 SSW 1014,0 6 0 4,0
05.12.2018 12:00:00 12,8 12,0 12,5 11,5 11,4 34 18 55 30 SSW 1015,3 3,0 0 1,0
05.12.2018 11:00:00 12,9 11,8 12,4 11,5 11,4 28 15 41 22 SSW 1015,4 9 0 0,0
05.12.2018 10:00:00 12,8 11,5 11,9 11,5 11,4 25 13 45 24 SSW 1015,9 12 0 0,0
05.12.2018 09:00:00 12,5 11,4 11,9 11,5 11,4 20 11 33 18 SSW 1016,7 8 0 0,0
05.12.2018 08:00:00 12,4 11,5 11,9 11,4 11,4 21 11 38 21 S 1016,6 11 0 0,0
05.12.2018 07:00:00 12,5 11,6 12,1 11,4 11,4 24 13 40 22 S 1016,4 12 0 0,0
05.12.2018 06:00:00 12,7 11,9 12,4 11,4 11,4 27 14 43 23 SSW 1017,0 13 0 0,0
05.12.2018 05:00:00 12,8 12,0 12,5 11,4 11,4 27 15 49 26 SSW 1017,5 14 0 0,0
05.12.2018 04:00:00 12,8 12,0 12,6 11,4 11,4 28 15 45 25 SSW 1017,9 14 0 0,0
05.12.2018 03:00:00 13,0 12,5 12,8 11,4 11,4 24 13 45 25 SSW 1018,1 12 0 0,0
05.12.2018 02:00:00 12,9 12,6 12,3 11,3 11,4 25 13 38 20 SSW 1018,4 7 0 0,2
05.12.2018 01:00:00 12,5 12,2 12,4 11,3 11,4 24 13 36 19 SW 1019,0 4,8 0 0,4
05.12.2018 00:00:00 12,6 12,3 12,5 11,3 11,4 23 13 35 19 SW 1019,0 5 0 0,8

tt = Température de l'air
td = dewpoint
tt 5cm = Température de l'air 5cm
tt -20cm = Température de l'air -20cm
tt -100cm = Température de l'air -100cm
ff = Vitesse du vent
fx = gusts
dd = Direction du vent
ppp = reduced air pressure
vv = visibility
sd = Ensoleillement
rr = Quantités de précipitations

stations d'obs. à proximité